This is the latest recevied weather packets stored in our database for station/object OM8AKX-12. If no packets are shown the sender has not sent any weather packets the latest 10 day(s).
| Time | Temp. | Humidity | Pressure | Rain* | Wind** | Luminosity | Snow |
|---|---|---|---|---|---|---|---|
| 1777981207 | 27.78° C | 17% | 1008 hPa | - | - | - | - |
| 1777980306 | 27.78° C | 17% | 1008.1 hPa | - | - | - | - |
| 1777979407 | 27.22° C | 16% | 1008.3 hPa | - | - | - | - |
| 1777978506 | 27.22° C | 15% | 1008.3 hPa | - | - | - | - |
| 1777977606 | 26.67° C | 16% | 1008.6 hPa | - | - | - | - |
| 1777976706 | 26.11° C | 17% | 1008.7 hPa | - | - | - | - |
| 1777975807 | 26.11° C | 19% | 1008.8 hPa | - | - | - | - |
| 1777974906 | 26.11° C | 18% | 1009 hPa | - | - | - | - |
| 1777974006 | 25.56° C | 19% | 1009.2 hPa | - | - | - | - |
| 1777973106 | 25.56° C | 20% | 1009.3 hPa | - | - | - | - |
| 1777957805 | 11.67° C | 77% | 1010.5 hPa | - | - | - | - |
| 1777948805 | 7.78° C | 81% | 1010.5 hPa | - | - | - | - |
| 1777947005 | 6.67° C | 87% | 1010.5 hPa | - | - | - | - |
| 1777945211 | 7.22° C | 78% | 1010.6 hPa | - | - | - | - |
| 1777944304 | 7.78° C | 77% | 1010.6 hPa | - | - | - | - |
| 1777942506 | 9.44° C | 69% | 1010.5 hPa | - | - | - | - |
| 1777941604 | 8.89° C | 74% | 1010.5 hPa | - | - | - | - |
| 1777939807 | 9.44° C | 72% | 1010.7 hPa | - | - | - | - |
| 1777938904 | 8.89° C | 71% | 1010.7 hPa | - | - | - | - |
| 1777938004 | 9.44° C | 66% | 1010.9 hPa | - | - | - | - |
| 1777937110 | 10.56° C | 62% | 1010.9 hPa | - | - | - | - |
| 1777936204 | 9.44° C | 64% | 1011.1 hPa | - | - | - | - |
| 1777935304 | 10° C | 63% | 1011.1 hPa | - | - | - | - |
| 1777933503 | 9.44° C | 61% | 1011.2 hPa | - | - | - | - |
| 1777932613 | 10° C | 57% | 1011.3 hPa | - | - | - | - |
* Rain since midnight (hover to see other rain measurements)
** Current wind speed in m/s (hover to see current wind gust speed)